User: anonymous   Login
Location: Byszew
(52.1813°N, 19.2693°E)
Time: 02:37:22
(UTC+00:00)
Language:

SL-4 R/B - Orbit

View from above orbital plane
View from above orbital plane
View from above satellite
View from above satellite

Ground track
Ground track

The orbit data is extracted from the following two-line orbital elements,

1 39679U 14021B   21127.47255556  .00000520  00000-0  42809-4 0  9998
2 39679  51.6176  43.2442 0170339 349.1780  10.5543 15.06932366387878
Epoch (UTC): 07 May 2021 11:20:28
Eccentricity: 0.0170339
inclination: 51.6176°
perigee height: 427 km
apogee height: 663 km
right ascension of ascending node: 43.2442°
argument of perigee: 349.1780°
revolutions per day: 15.06932366
mean anomaly at epoch: 10.5543°
orbit number at epoch: 38787

The dashed part of the orbit path shows where the satellite is in the earth's shadow,  

DLR